Flag for Canada Weather past 2 weeks in Saguenay, Quebec, Canada

Now
56 °F

Cool.


Feels Like: 56 °F
Forecast: 56 / 79 °F
Wind: 3 mph from East

Location: Jonquiere Airport

Current Time: May 27, 2015 at 7:10:43 AM

Latest Report: May 27, 2015 at 6:00 AM


Visibility: N/A

Pressure: 29.98 "Hg

Humidity: 93%

Dew point: 54 °F

Location of SaguenayLocation

Historic Weather in Saguenay — Graph

°F

Saguenay temperature yesterday

Maximum temperature yesterday: 77 °F (at 5:00 PM)
Minimum temperature yesterday: 57 °F (at 6:00 AM)
Average temperature yesterday: 64 °F

Past Weeks' High & Low Weather Summary

 TemperatureHumidityPressure
High78 °F (May 19, 3:00 PM)98% (May 12, 6:00 AM)30.29 "Hg (May 12, 6:00 AM)
Low34 °F (May 23, 6:00 AM)15% (May 24, 6:00 PM)29.47 "Hg (May 19, 6:00 PM)
Average54 °F59%29.95 "Hg
* Reported May 12 6:00 AM — May 27 6:00 AM, Saguenay, Weather by CustomWeather, © 2015

Note: Actual official high and low records may vary slightly from our data, if they occured in-between our weather recording intervals... More about our weather records

Advertising

Saguenay weather history for previous 24 hours

 ConditionsComfort  
Time TempWeatherWind HumidityBarometerVisibility
6:00 AM
Wed, May 27
56 °FCool.3 mph93%29.98 "HgN/A
5:00 AM55 °FCool.7 mph95%30.01 "HgN/A
4:00 AM54 °FCool.3 mph94%30.01 "HgN/A
3:00 AM54 °FCool.3 mph93%30.03 "HgN/A
2:00 AM56 °FCool.5 mph89%30.03 "HgN/A
1:00 AM56 °FCool.6 mph89%30.03 "HgN/A
12:00 AM57 °FCool.2 mph87%30.01 "HgN/A
11:00 PM
Tue, May 26
59 °FCool.6 mph82%30.01 "HgN/A
10:00 PM64 °FMild.10 mph73%29.98 "HgN/A
9:00 PM66 °FMild.10 mph71%29.95 "HgN/A
8:00 PM68 °FMild.10 mph73%29.92 "HgN/A
7:00 PM69 °FMild.12 mph76%29.90 "HgN/A
6:00 PM68 °FMild.10 mph76%29.88 "HgN/A
5:00 PM77 °FMild.13 mph51%29.82 "HgN/A
4:00 PM76 °FMild.16 mph52%29.81 "HgN/A
3:00 PM74 °FMild.17 mph58%29.81 "HgN/A
2:00 PM75 °FMild.13 mph58%29.81 "HgN/A
1:00 PM71 °FMild.6 mph78%29.81 "HgN/A
12:00 PM63 °FMild.3 mph93%29.82 "HgN/A
11:00 AM59 °FCool.5 mph96%29.82 "HgN/A
10:00 AM57 °FCool.5 mph96%29.84 "HgN/A
9:00 AM58 °FCool.5 mph95%29.85 "HgN/A
8:00 AM58 °FCool.3 mph93%29.86 "HgN/A
7:00 AM58 °FCool.7 mph92%29.87 "HgN/A
Weather by CustomWeather, © 2015

See weather overviewHow to use our weather pages